Preview of NWS' New Version of Forecast
This preview is not operational and should not be used for support decisions.

Regional Weather Roundup (RWR)

Issued by National Weather Service (NWS)

                            
000
ASUS44 KMEG 260400
RWRTN 
TENNESSEE HOURLY STATE WEATHER ROUNDUP
NATIONAL WEATHER SERVICE MEMPHIS TN
1100 PM CDT SAT MAY 25 2019

TNZ002-004-019-021-049-052-054-088>092-260500-
WEST TENNESSEE
  
CITY           SKY/WX    TMP DP  RH WIND       PRES   REMARKS
MEMPHIS INTL   FAIR      78  68  71 S5        30.09R                  
NWS MEMPHIS      N/A     79 N/A N/A MISG        N/A                   
JACKSON        FAIR      73  67  81 SW5       30.10R                  
DYERSBURG      FAIR      79  68  69 S5        30.08R                  
$$

TNZ008-025-027-028-033-062-065-066-260500-
NORTH MIDDLE TENNESSEE
  
CITY           SKY/WX    TMP DP  RH WIND       PRES   REMARKS
NASHVILLE      FAIR      75  65  70 S6        30.11S                  
CLARKSVILLE    FAIR      74  64  71 CALM      30.08S                  
SMYRNA         FAIR      72  67  84 CALM      30.12S                  
CROSSVILLE     FAIR      66  62  87 CALM      30.19F                  
$$

TNZ061-075-076-078-094-096-097-260500-
SOUTH MIDDLE TENNESSEE
  
CITY           SKY/WX    TMP DP  RH WIND       PRES   REMARKS
$$

TNZ017-018-042-046-047-260500-
NORTHEAST TENNESSEE
  
CITY           SKY/WX    TMP DP  RH WIND       PRES   REMARKS
TRI CITIES     FAIR      73  64  73 CALM      30.15F                  
$$

TNZ012-013-036-069-073-074-260500-
CENTRAL EAST TENNESSEE
  
CITY           SKY/WX    TMP DP  RH WIND       PRES   REMARKS
KNOXVILLE      FAIR      76  65  68 CALM      30.13S                  
OAK RIDGE      FAIR      75  66  73 CALM      30.14F                  
$$

TNZ083-085-099-260500-
SOUTHEAST TENNESSEE
  
CITY           SKY/WX    TMP DP  RH WIND       PRES   REMARKS
CHATTANOOGA    FAIR      79  68  69 CALM      30.13S                  
$$

SKY/WX REPORTED AS FAIR MEANS FEW OR NO CLOUDS BELOW
12 THOUSAND FEET.